DMSP 5D-2 F11 DEB, 28335

Orbit data source: Space-Track

DMSP 5D-2 F11 DEB, 28335 is space debris in SSO originally from a launch on Thu, 28 Nov 1991 UTC launched from the Air Force Western Test Range (AFWTR). Debris objects in space refer to the collection of defunct objects orbiting the Earth. Examples of debris include non-operational satellites, rocket bodies, and fragments generated from explosions, collisions, or faulty payload assembly.

Loading next visibility...
Identifier
28335, 1991-082AY
Orbit
SSO
Country
Flag of USUS
Related business
Manufacturer
Unknown
Mission
Spacecraft
Bus & Motor
Unknown
Mass
Unknown
Launch date (UTC)
1991-11-28 (34 years ago)
Launch vehicle
Unknown
Launch site
Air Force Western Test Range (AFWTR)
Object type
Payload
Rocket body
Debris
Shape & HBR
Unknown shape, 0.1 m
Radar Cross Section
Small (<0.1 m²)

Expand to show TLE details & history
Last TLE update: 2 days ago

TLE from 2 days ago
0 DMSP 5D-2 F11 DEB
1 28335U 91082AY  25347.94184466  .00006196  00000-0  17448-2 0  9992
2 28335  98.5764  56.2776 0009447  95.4469 264.7800 14.46140205648211
Epoch: 2025-12-13T22:36Z
TLE epoch observation values (Epoch: 2025-12-13T22:36:15.378Z)
Latitude
-0.00005°
Longitude
-5.64835°
Altitude
741.856 km
Speed
7.484 km/s
True Right ascension
03h 45m 06s
True Declination
0° 00' 00"
Sunlit
Object was in full shadow at epoch
Visualization orbit readout
Latitude
Unknown
Longitude
Unknown
Altitude
Unknown
Speed
Unknown
Apparent Right ascension
Unknown
Apparent Declination
Unknown
Sunlit
N/A
Visualization observer readout
Local Sidereal Time
08:36:19
Azimuth
Unknown
Elevation
Unknown
Doppler factor
Unknown
Orbital elements
Apogee altitude
742.121 km
Perigee altitude
728.68 km
Semi-major axis
7,113.537 km
Eccentricity
0.00094
Inclination
98.5764°
RAAN
56.2776°
Arg. of periapsis
95.4469°
True anomaly
264.67221°
Mean anomaly
264.78°
Eccentric anomaly
264.7261°
Mean motion
3.61755 °/min
Orbital period
99.51 mins
BSTAR
0.0017448
Loading maneuver chart data...
Computing Atmospheric mass density...

Documentation

Showing up to 5 results
|